Wind From: 11-12-2017 12:03 Until: 12-12-2017 06:00 warning for: Wind Level: Orange info button

Power and phone distribution networks may be disrupted for relatively long periods., Roofs and chimneys can be damaged. , Tree branches may break. , Vehicles can be deported. , Traffic may be disrupted, particularly on secondary roads in forest areas. Limit your trips. , Limit your speed in highway driving, especially if you drive a vehicle or hitch sensitive to wind. , Do not go for walks in forests or along the coast., In town, be vigilant against possible falling objects., Do not work on roofs and do not touch any electrical line fallen on the ground., Store or secure sensitive objects to wind or likely to be damaged., Always install power generators outside buildings. 


Meteo18 Weather Cam more information Meteo18 Weather Cam


Thunder radar more information blitzortung!


Rain radar more information rain snow radar


Visit our other weather sites:

Template documentation
and downloads

And another site



Weather Underground History page Text

Daily Summary for September 4, 2016 Units:  Metric    English   Both
« Previous Day
Next Day »
Daily Weekly Monthly Yearly Custom
  High: Low: Average:
Temperature: 23.5 °C 14.6 °C 19.7 °C
Dew Point: 17.3 °C 8.4 °C 13.2 °C
Humidity: 83 % 56 % 67 %
Wind Speed: 12.9 km/h 0.0 km/h 2.9 km/h
Wind Gust: 20.9 km/h - -
Wind:- - WSW
Pressure: 1018.8 hPa 1015.8 hPa -
Precipitation: 0.0 mm    
Historical Graphs
 
 
Tabular Data for September 4, 2016
Time Temperature Dew Point Pressure Wind Wind Speed Wind Gust Humidity Rainfall Rate (Hourly)
00:02 19.1 °C 10.1 °C 1016.5 hPa Calm     56 % 0.0 mm
00:07 18.9 °C 9.9 °C 1016.5 hPa Calm     56 % 0.0 mm
00:12 18.8 °C 10.1 °C 1016.5 hPa Calm     57 % 0.0 mm
00:17 18.9 °C 10.2 °C 1016.5 hPa Calm     57 % 0.0 mm
00:22 18.8 °C 10.1 °C 1016.5 hPa Calm     57 % 0.0 mm
00:27 18.7 °C 10.0 °C 1016.5 hPa Calm     57 % 0.0 mm
00:32 18.4 °C 10.0 °C 1016.5 hPa Calm     58 % 0.0 mm
00:37 18.2 °C 10.1 °C 1016.5 hPa Calm     59 % 0.0 mm
00:42 18.2 °C 10.1 °C 1016.5 hPa Calm     59 % 0.0 mm
00:47 17.9 °C 9.5 °C 1016.5 hPa Calm     58 % 0.0 mm
00:52 17.9 °C 9.5 °C 1016.5 hPa Calm     58 % 0.0 mm
00:57 17.8 °C 9.7 °C 1016.5 hPa Calm     59 % 0.0 mm
01:02 17.7 °C 9.3 °C 1016.5 hPa Calm     58 % 0.0 mm
01:07 17.5 °C 9.4 °C 1016.5 hPa Calm     59 % 0.0 mm
01:12 17.4 °C 9.3 °C 1016.5 hPa Calm     59 % 0.0 mm
01:17 17.2 °C 9.4 °C 1016.5 hPa Calm     60 % 0.0 mm
01:22 17.1 °C 9.3 °C 1016.5 hPa Calm     60 % 0.0 mm
01:27 16.9 °C 9.3 °C 1016.5 hPa Calm     61 % 0.0 mm
01:32 16.8 °C 9.7 °C 1016.5 hPa Calm     63 % 0.0 mm
01:37 16.7 °C 9.4 °C 1016.5 hPa Calm     62 % 0.0 mm
01:42 16.8 °C 9.7 °C 1016.5 hPa Calm     63 % 0.0 mm
01:47 16.7 °C 9.4 °C 1016.5 hPa Calm     62 % 0.0 mm
01:57 16.5 °C 9.4 °C 1016.5 hPa Calm     63 % 0.0 mm
02:02 16.7 °C 9.6 °C 1016.5 hPa Calm     63 % 0.0 mm
02:07 16.6 °C 9.5 °C 1016.5 hPa Calm     63 % 0.0 mm
02:12 16.4 °C 9.1 °C 1016.5 hPa Calm     62 % 0.0 mm
02:17 16.4 °C 9.3 °C 1016.5 hPa Calm     63 % 0.0 mm
02:22 16.3 °C 9.2 °C 1016.5 hPa Calm     63 % 0.0 mm
02:27 16.3 °C 9.5 °C 1016.5 hPa Calm     64 % 0.0 mm
02:32 16.3 °C 9.5 °C 1016.5 hPa Calm     64 % 0.0 mm
02:37 16.2 °C 9.6 °C 1016.5 hPa Calm     65 % 0.0 mm
02:42 16.1 °C 9.3 °C 1016.5 hPa Calm     64 % 0.0 mm
02:47 16.1 °C 9.1 °C 1016.5 hPa Calm     63 % 0.0 mm
02:52 16.0 °C 9.2 °C 1016.5 hPa Calm     64 % 0.0 mm
02:57 16.0 °C 9.2 °C 1016.5 hPa Calm     64 % 0.0 mm
03:02 16.1 °C 9.3 °C 1016.5 hPa Calm     64 % 0.0 mm
03:07 16.0 °C 9.2 °C 1016.5 hPa Calm     64 % 0.0 mm
03:12 15.9 °C 9.3 °C 1016.5 hPa Calm     65 % 0.0 mm
03:17 15.8 °C 9.2 °C 1016.5 hPa Calm     65 % 0.0 mm
03:22 15.8 °C 9.2 °C 1016.5 hPa Calm     65 % 0.0 mm
03:27 15.9 °C 9.3 °C 1016.5 hPa Calm     65 % 0.0 mm
03:32 15.9 °C 9.3 °C 1016.5 hPa Calm     65 % 0.0 mm
03:37 15.7 °C 9.1 °C 1016.5 hPa Calm     65 % 0.0 mm
03:42 15.5 °C 8.9 °C 1016.1 hPa Calm     65 % 0.0 mm
03:47 15.4 °C 9.1 °C 1016.1 hPa Calm     66 % 0.0 mm
03:52 15.3 °C 8.8 °C 1016.1 hPa Calm     65 % 0.0 mm
03:57 15.2 °C 8.9 °C 1016.1 hPa Calm     66 % 0.0 mm
04:02 15.2 °C 8.9 °C 1016.1 hPa Calm     66 % 0.0 mm
04:07 15.1 °C 9.0 °C 1016.1 hPa Calm     67 % 0.0 mm
04:12 15.1 °C 9.0 °C 1016.1 hPa Calm     67 % 0.0 mm
04:17 15.2 °C 9.1 °C 1015.8 hPa Calm     67 % 0.0 mm
04:22 15.3 °C 9.0 °C 1015.8 hPa Calm     66 % 0.0 mm
04:32 15.2 °C 8.9 °C 1016.1 hPa Calm     66 % 0.0 mm
04:37 15.1 °C 8.8 °C 1015.8 hPa Calm     66 % 0.0 mm
04:42 15.1 °C 8.8 °C 1016.1 hPa Calm     66 % 0.0 mm
04:47 15.0 °C 8.9 °C 1016.1 hPa Calm     67 % 0.0 mm
04:52 15.0 °C 9.1 °C 1016.1 hPa Calm     68 % 0.0 mm
04:57 15.1 °C 9.2 °C 1016.1 hPa Calm     68 % 0.0 mm
05:02 15.0 °C 8.9 °C 1016.1 hPa Calm     67 % 0.0 mm
05:07 15.1 °C 9.2 °C 1016.1 hPa Calm     68 % 0.0 mm
05:12 15.0 °C 8.9 °C 1016.1 hPa Calm     67 % 0.0 mm
05:17 15.2 °C 9.1 °C 1016.1 hPa Calm     67 % 0.0 mm
05:22 15.3 °C 9.2 °C 1016.1 hPa Calm     67 % 0.0 mm
05:27 15.4 °C 9.3 °C 1016.1 hPa Calm     67 % 0.0 mm
05:32 15.3 °C 9.2 °C 1016.1 hPa Calm     67 % 0.0 mm
05:37 15.2 °C 9.1 °C 1016.1 hPa Calm     67 % 0.0 mm
05:42 15.1 °C 9.0 °C 1015.8 hPa Calm     67 % 0.0 mm
05:52 14.9 °C 9.0 °C 1016.1 hPa Calm     68 % 0.0 mm
05:57 14.9 °C 9.0 °C 1016.1 hPa Calm     68 % 0.0 mm
06:02 14.9 °C 9.0 °C 1016.1 hPa Calm     68 % 0.0 mm
06:07 14.8 °C 9.2 °C 1016.1 hPa Calm     69 % 0.0 mm
06:12 15.0 °C 8.9 °C 1016.1 hPa Calm     67 % 0.0 mm
06:17 15.0 °C 8.7 °C 1016.1 hPa Calm   1.6 km/h 66 % 0.0 mm
06:22 14.9 °C 8.6 °C 1016.1 hPa Calm   1.6 km/h 66 % 0.0 mm
06:27 14.8 °C 8.7 °C 1015.8 hPa Calm   1.6 km/h 67 % 0.0 mm
06:32 14.7 °C 8.6 °C 1016.1 hPa Calm     67 % 0.0 mm
06:37 14.6 °C 8.5 °C 1015.8 hPa Calm     67 % 0.0 mm
06:42 14.6 °C 8.8 °C 1015.8 hPa Calm     68 % 0.0 mm
06:47 14.6 °C 8.8 °C 1015.8 hPa Calm     68 % 0.0 mm
06:52 14.6 °C 8.8 °C 1016.1 hPa Calm     68 % 0.0 mm
07:02 14.8 °C 8.7 °C 1016.1 hPa Calm     67 % 0.0 mm
07:07 15.2 °C 8.9 °C 1016.1 hPa Calm     66 % 0.0 mm
07:12 15.4 °C 8.9 °C 1016.1 hPa SE 1.6 km/h 3.2 km/h 65 % 0.0 mm
07:17 15.5 °C 8.5 °C 1016.1 hPa South 3.2 km/h 4.8 km/h 63 % 0.0 mm
07:22 15.6 °C 8.6 °C 1016.1 hPa SE 1.6 km/h 4.8 km/h 63 % 0.0 mm
07:32 15.7 °C 8.4 °C 1016.1 hPa SSW 3.2 km/h 4.8 km/h 62 % 0.0 mm
07:37 15.7 °C 8.4 °C 1016.1 hPa SSW 4.8 km/h 4.8 km/h 62 % 0.0 mm
07:42 16.0 °C 8.5 °C 1016.5 hPa SW 3.2 km/h 8.0 km/h 61 % 0.0 mm
07:47 16.2 °C 8.7 °C 1016.5 hPa Calm   8.0 km/h 61 % 0.0 mm
07:52 16.2 °C 8.7 °C 1016.5 hPa SW 3.2 km/h 8.0 km/h 61 % 0.0 mm
07:57 16.3 °C 8.8 °C 1016.8 hPa Calm   4.8 km/h 61 % 0.0 mm
08:02 16.5 °C 9.0 °C 1016.5 hPa Calm   4.8 km/h 61 % 0.0 mm
08:07 16.6 °C 8.8 °C 1016.8 hPa SW 3.2 km/h 4.8 km/h 60 % 0.0 mm
08:12 16.8 °C 8.7 °C 1016.8 hPa SSW 3.2 km/h 4.8 km/h 59 % 0.0 mm
08:17 16.9 °C 8.8 °C 1016.8 hPa SSW 4.8 km/h 6.4 km/h 59 % 0.0 mm
08:22 16.9 °C 8.8 °C 1016.8 hPa Calm   6.4 km/h 59 % 0.0 mm
08:32 17.1 °C 9.0 °C 1016.8 hPa SW 3.2 km/h 4.8 km/h 59 % 0.0 mm
08:42 17.3 °C 9.2 °C 1016.8 hPa SSW 1.6 km/h 6.4 km/h 59 % 0.0 mm
08:47 17.4 °C 9.1 °C 1016.8 hPa SW 3.2 km/h 6.4 km/h 58 % 0.0 mm
08:52 17.5 °C 9.1 °C 1016.8 hPa SSW 3.2 km/h 6.4 km/h 58 % 0.0 mm
08:57 17.6 °C 9.2 °C 1016.8 hPa SW 4.8 km/h 6.4 km/h 58 % 0.0 mm
09:02 17.7 °C 9.3 °C 1016.8 hPa SW 3.2 km/h 8.0 km/h 58 % 0.0 mm
09:07 17.8 °C 9.4 °C 1016.8 hPa SW 1.6 km/h 8.0 km/h 58 % 0.0 mm
09:12 18.0 °C 9.9 °C 1016.8 hPa SSW 1.6 km/h 8.0 km/h 59 % 0.0 mm
09:17 18.3 °C 10.4 °C 1016.8 hPa Calm   8.0 km/h 60 % 0.0 mm
09:22 18.7 °C 10.8 °C 1016.8 hPa WNW 3.2 km/h 8.0 km/h 60 % 0.0 mm
09:27 19.0 °C 11.1 °C 1016.8 hPa WSW 8.0 km/h 9.7 km/h 60 % 0.0 mm
09:32 19.2 °C 11.2 °C 1016.8 hPa WSW 6.4 km/h 11.3 km/h 60 % 0.0 mm
09:37 19.4 °C 11.4 °C 1016.8 hPa West 12.9 km/h 12.9 km/h 60 % 0.0 mm
09:42 19.4 °C 11.2 °C 1016.8 hPa WSW 8.0 km/h 14.5 km/h 59 % 0.0 mm
09:47 19.4 °C 11.4 °C 1017.2 hPa WSW 3.2 km/h 14.5 km/h 60 % 0.0 mm
09:52 19.5 °C 11.8 °C 1017.2 hPa Calm   14.5 km/h 61 % 0.0 mm
09:57 19.6 °C 12.1 °C 1017.2 hPa WSW 3.2 km/h 11.3 km/h 62 % 0.0 mm
10:02 19.6 °C 12.4 °C 1017.2 hPa WSW 4.8 km/h 11.3 km/h 63 % 0.0 mm
10:07 19.6 °C 12.6 °C 1017.2 hPa WNW 4.8 km/h 9.7 km/h 64 % 0.0 mm
10:12 19.7 °C 12.9 °C 1017.5 hPa WNW 1.6 km/h 11.3 km/h 65 % 0.0 mm
10:17 19.9 °C 13.1 °C 1017.5 hPa Calm   11.3 km/h 65 % 0.0 mm
10:22 20.2 °C 13.4 °C 1017.5 hPa Calm   8.0 km/h 65 % 0.0 mm
10:27 20.3 °C 13.5 °C 1017.5 hPa West 1.6 km/h 6.4 km/h 65 % 0.0 mm
10:37 20.4 °C 13.4 °C 1017.5 hPa SW 1.6 km/h 4.8 km/h 64 % 0.0 mm
10:42 20.5 °C 13.7 °C 1017.5 hPa SSW 4.8 km/h 4.8 km/h 65 % 0.0 mm
10:47 20.6 °C 13.8 °C 1017.5 hPa SSW 4.8 km/h 6.4 km/h 65 % 0.0 mm
10:52 20.7 °C 13.9 °C 1017.5 hPa South 3.2 km/h 6.4 km/h 65 % 0.0 mm
10:57 20.7 °C 14.1 °C 1017.5 hPa SSW 1.6 km/h 6.4 km/h 66 % 0.0 mm
11:02 20.8 °C 14.4 °C 1017.5 hPa SW 6.4 km/h 6.4 km/h 67 % 0.0 mm
11:07 20.8 °C 14.7 °C 1017.5 hPa SW 1.6 km/h 8.0 km/h 68 % 0.0 mm
11:12 20.9 °C 14.5 °C 1017.8 hPa SW 6.4 km/h 8.0 km/h 67 % 0.0 mm
11:22 20.9 °C 14.5 °C 1017.8 hPa SSW 6.4 km/h 12.9 km/h 67 % 0.0 mm
11:27 20.9 °C 14.5 °C 1017.8 hPa WSW 6.4 km/h 12.9 km/h 67 % 0.0 mm
11:32 21.1 °C 14.5 °C 1017.5 hPa West 8.0 km/h 12.9 km/h 66 % 0.0 mm
11:37 21.1 °C 14.5 °C 1017.5 hPa WSW 3.2 km/h 12.9 km/h 66 % 0.0 mm
11:42 21.3 °C 14.7 °C 1017.5 hPa SW 6.4 km/h 14.5 km/h 66 % 0.0 mm
11:52 21.5 °C 14.6 °C 1017.5 hPa SSE 6.4 km/h 11.3 km/h 65 % 0.0 mm
11:57 21.6 °C 14.7 °C 1017.5 hPa SW 6.4 km/h 16.1 km/h 65 % 0.0 mm
12:02 21.7 °C 15.1 °C 1017.5 hPa SW 8.0 km/h 16.1 km/h 66 % 0.0 mm
12:07 21.9 °C 15.3 °C 1017.5 hPa WNW 4.8 km/h 16.1 km/h 66 % 0.0 mm
12:12 22.2 °C 15.3 °C 1017.8 hPa SSE 6.4 km/h 14.5 km/h 65 % 0.0 mm
12:17 22.3 °C 15.2 °C 1017.8 hPa WNW 1.6 km/h 14.5 km/h 64 % 0.0 mm
12:22 22.3 °C 15.2 °C 1017.8 hPa SW 4.8 km/h 12.9 km/h 64 % 0.0 mm
12:27 22.1 °C 14.7 °C 1017.8 hPa WSW 11.3 km/h 16.1 km/h 63 % 0.0 mm
12:32 21.8 °C 14.7 °C 1017.8 hPa WSW 8.0 km/h 16.1 km/h 64 % 0.0 mm
12:42 22.0 °C 14.9 °C 1017.8 hPa WSW 11.3 km/h 12.9 km/h 64 % 0.0 mm
12:47 21.9 °C 14.8 °C 1017.8 hPa SW 3.2 km/h 12.9 km/h 64 % 0.0 mm
12:52 22.0 °C 15.1 °C 1017.8 hPa West 9.7 km/h 12.9 km/h 65 % 0.0 mm
12:57 22.1 °C 15.2 °C 1017.8 hPa WSW 11.3 km/h 17.7 km/h 65 % 0.0 mm
13:02 22.2 °C 15.1 °C 1018.2 hPa South 3.2 km/h 17.7 km/h 64 % 0.0 mm
13:07 22.3 °C 14.9 °C 1018.2 hPa WSW 9.7 km/h 17.7 km/h 63 % 0.0 mm
13:12 22.3 °C 15.2 °C 1017.8 hPa WSW 6.4 km/h 16.1 km/h 64 % 0.0 mm
13:22 22.3 °C 14.9 °C 1018.2 hPa SW 6.4 km/h 16.1 km/h 63 % 0.0 mm
13:27 22.4 °C 15.3 °C 1018.2 hPa WNW 9.7 km/h 16.1 km/h 64 % 0.0 mm
13:32 22.6 °C 15.4 °C 1018.2 hPa SW 8.0 km/h 16.1 km/h 64 % 0.0 mm
13:37 22.7 °C 15.8 °C 1017.8 hPa West 12.9 km/h 14.5 km/h 65 % 0.0 mm
13:47 22.7 °C 15.8 °C 1018.2 hPa West 6.4 km/h 20.9 km/h 65 % 0.0 mm
13:52 22.7 °C 16.0 °C 1018.2 hPa West 4.8 km/h 20.9 km/h 66 % 0.0 mm
13:57 22.7 °C 16.0 °C 1017.8 hPa West 11.3 km/h 17.7 km/h 66 % 0.0 mm
14:02 22.6 °C 15.9 °C 1018.2 hPa WNW 8.0 km/h 17.7 km/h 66 % 0.0 mm
14:07 22.6 °C 15.9 °C 1017.8 hPa West 4.8 km/h 17.7 km/h 66 % 0.0 mm
14:12 22.6 °C 16.2 °C 1017.8 hPa WSW 4.8 km/h 14.5 km/h 67 % 0.0 mm
14:17 22.6 °C 16.2 °C 1017.8 hPa WSW 9.7 km/h 14.5 km/h 67 % 0.0 mm
14:22 22.7 °C 16.3 °C 1017.8 hPa West 4.8 km/h 11.3 km/h 67 % 0.0 mm
14:27 22.7 °C 16.0 °C 1017.8 hPa WSW 4.8 km/h 14.5 km/h 66 % 0.0 mm
14:32 22.8 °C 16.1 °C 1017.8 hPa West 8.0 km/h 14.5 km/h 66 % 0.0 mm
14:37 22.8 °C 16.1 °C 1017.8 hPa WNW 8.0 km/h 14.5 km/h 66 % 0.0 mm
14:42 22.8 °C 16.1 °C 1017.8 hPa WNW 8.0 km/h 14.5 km/h 66 % 0.0 mm
14:47 22.9 °C 16.4 °C 1017.8 hPa WSW 12.9 km/h 17.7 km/h 67 % 0.0 mm
14:52 23.1 °C 16.4 °C 1017.8 hPa SW 12.9 km/h 17.7 km/h 66 % 0.0 mm
14:57 23.0 °C 16.3 °C 1017.8 hPa SW 6.4 km/h 19.3 km/h 66 % 0.0 mm
15:02 23.1 °C 16.4 °C 1017.5 hPa WNW 8.0 km/h 19.3 km/h 66 % 0.0 mm
15:07 23.2 °C 16.5 °C 1017.5 hPa West 4.8 km/h 19.3 km/h 66 % 0.0 mm
15:12 23.2 °C 16.5 °C 1017.5 hPa SSW 4.8 km/h 16.1 km/h 66 % 0.0 mm
15:17 23.2 °C 16.3 °C 1017.8 hPa WSW 4.8 km/h 14.5 km/h 65 % 0.0 mm
15:22 23.2 °C 16.3 °C 1017.8 hPa SW 8.0 km/h 14.5 km/h 65 % 0.0 mm
15:32 23.2 °C 16.5 °C 1017.8 hPa SSW 4.8 km/h 14.5 km/h 66 % 0.0 mm
15:37 23.2 °C 16.5 °C 1017.8 hPa West 4.8 km/h 14.5 km/h 66 % 0.0 mm
15:42 23.4 °C 16.4 °C 1017.8 hPa WNW 4.8 km/h 14.5 km/h 65 % 0.0 mm
15:47 23.3 °C 16.3 °C 1017.8 hPa WNW 9.7 km/h 14.5 km/h 65 % 0.0 mm
15:52 23.4 °C 16.7 °C 1017.8 hPa West 4.8 km/h 14.5 km/h 66 % 0.0 mm
15:57 23.4 °C 16.7 °C 1017.8 hPa West 9.7 km/h 14.5 km/h 66 % 0.0 mm
16:02 23.3 °C 16.6 °C 1017.8 hPa WSW 8.0 km/h 16.1 km/h 66 % 0.0 mm
16:07 23.4 °C 16.7 °C 1017.8 hPa WNW 3.2 km/h 16.1 km/h 66 % 0.0 mm
16:12 23.5 °C 16.8 °C 1018.2 hPa WNW 8.0 km/h 14.5 km/h 66 % 0.0 mm
16:17 23.4 °C 16.7 °C 1018.2 hPa West 4.8 km/h 16.1 km/h 66 % 0.0 mm
16:22 23.4 °C 16.7 °C 1018.5 hPa WNW 4.8 km/h 16.1 km/h 66 % 0.0 mm
16:27 23.4 °C 16.7 °C 1018.5 hPa West 8.0 km/h 16.1 km/h 66 % 0.0 mm
16:32 23.4 °C 16.7 °C 1018.2 hPa WSW 1.6 km/h 16.1 km/h 66 % 0.0 mm
16:37 23.4 °C 16.9 °C 1018.2 hPa West 4.8 km/h 14.5 km/h 67 % 0.0 mm
16:42 23.4 °C 16.9 °C 1018.2 hPa West 9.7 km/h 14.5 km/h 67 % 0.0 mm
16:47 23.3 °C 16.8 °C 1018.2 hPa SW 3.2 km/h 16.1 km/h 67 % 0.0 mm
16:52 23.3 °C 16.8 °C 1018.2 hPa NW 8.0 km/h 16.1 km/h 67 % 0.0 mm
16:57 23.3 °C 16.8 °C 1018.2 hPa West 6.4 km/h 14.5 km/h 67 % 0.0 mm
17:02 23.2 °C 17.0 °C 1018.2 hPa WSW 8.0 km/h 14.5 km/h 68 % 0.0 mm
17:07 23.1 °C 16.9 °C 1017.8 hPa WSW 6.4 km/h 16.1 km/h 68 % 0.0 mm
17:12 23.1 °C 16.9 °C 1017.8 hPa WSW 3.2 km/h 16.1 km/h 68 % 0.0 mm
17:17 23.1 °C 16.9 °C 1018.2 hPa SW 4.8 km/h 16.1 km/h 68 % 0.0 mm
17:27 23.0 °C 16.8 °C 1017.8 hPa SSW 3.2 km/h 17.7 km/h 68 % 0.0 mm
17:32 23.0 °C 17.0 °C 1017.8 hPa WNW 6.4 km/h 17.7 km/h 69 % 0.0 mm
17:37 23.1 °C 17.1 °C 1017.8 hPa WSW 3.2 km/h 17.7 km/h 69 % 0.0 mm
17:42 23.0 °C 17.0 °C 1018.2 hPa WSW 3.2 km/h 8.0 km/h 69 % 0.0 mm
17:47 23.1 °C 16.9 °C 1018.2 hPa NW 4.8 km/h 12.9 km/h 68 % 0.0 mm
17:52 23.1 °C 16.9 °C 1018.2 hPa West 6.4 km/h 14.5 km/h 68 % 0.0 mm
17:57 23.1 °C 16.9 °C 1018.5 hPa WNW 4.8 km/h 14.5 km/h 68 % 0.0 mm
18:02 23.1 °C 17.1 °C 1018.5 hPa WNW 3.2 km/h 14.5 km/h 69 % 0.0 mm
18:12 23.1 °C 17.1 °C 1018.5 hPa NW 4.8 km/h 14.5 km/h 69 % 0.0 mm
18:17 23.1 °C 17.1 °C 1018.2 hPa Calm   11.3 km/h 69 % 0.0 mm
18:22 23.0 °C 17.0 °C 1018.2 hPa NW 3.2 km/h 11.3 km/h 69 % 0.0 mm
18:32 22.9 °C 16.9 °C 1018.2 hPa WSW 1.6 km/h 9.7 km/h 69 % 0.0 mm
18:42 22.9 °C 16.9 °C 1018.2 hPa West 3.2 km/h 9.7 km/h 69 % 0.0 mm
18:47 22.9 °C 16.9 °C 1018.2 hPa West 4.8 km/h 9.7 km/h 69 % 0.0 mm
18:52 22.9 °C 16.9 °C 1018.5 hPa WNW 3.2 km/h 9.7 km/h 69 % 0.0 mm
18:57 22.9 °C 17.1 °C 1018.2 hPa NW 3.2 km/h 6.4 km/h 70 % 0.0 mm
19:02 22.9 °C 17.1 °C 1018.2 hPa West 4.8 km/h 6.4 km/h 70 % 0.0 mm
19:12 22.8 °C 17.0 °C 1018.5 hPa WNW 1.6 km/h 6.4 km/h 70 % 0.0 mm
19:17 22.8 °C 17.0 °C 1018.5 hPa WSW 1.6 km/h 9.7 km/h 70 % 0.0 mm
19:22 22.8 °C 17.0 °C 1018.2 hPa WSW 1.6 km/h 9.7 km/h 70 % 0.0 mm
19:27 22.8 °C 17.0 °C 1018.2 hPa WNW 3.2 km/h 9.7 km/h 70 % 0.0 mm
19:32 22.7 °C 17.2 °C 1018.2 hPa West 3.2 km/h 4.8 km/h 71 % 0.0 mm
19:42 22.7 °C 17.2 °C 1018.5 hPa WSW 3.2 km/h 4.8 km/h 71 % 0.0 mm
19:52 22.6 °C 17.3 °C 1018.2 hPa SW 1.6 km/h 6.4 km/h 72 % 0.0 mm
19:57 22.4 °C 17.1 °C 1018.2 hPa WSW 3.2 km/h 6.4 km/h 72 % 0.0 mm
20:02 22.4 °C 17.1 °C 1017.8 hPa SW 3.2 km/h 6.4 km/h 72 % 0.0 mm
20:07 22.4 °C 17.1 °C 1018.2 hPa SSW 4.8 km/h 8.0 km/h 72 % 0.0 mm
20:12 22.3 °C 17.2 °C 1018.2 hPa SW 3.2 km/h 8.0 km/h 73 % 0.0 mm
20:17 22.3 °C 17.2 °C 1018.5 hPa West 4.8 km/h 8.0 km/h 73 % 0.0 mm
20:22 22.2 °C 17.1 °C 1018.2 hPa SSW 1.6 km/h 8.0 km/h 73 % 0.0 mm
20:27 22.2 °C 17.1 °C 1018.5 hPa SW 3.2 km/h 8.0 km/h 73 % 0.0 mm
20:32 22.2 °C 17.1 °C 1018.5 hPa WSW 1.6 km/h 6.4 km/h 73 % 0.0 mm
20:37 22.2 °C 17.1 °C 1018.5 hPa SW 1.6 km/h 4.8 km/h 73 % 0.0 mm
20:42 22.1 °C 17.2 °C 1018.5 hPa SW 3.2 km/h 4.8 km/h 74 % 0.0 mm
20:47 22.1 °C 17.2 °C 1018.5 hPa SW 1.6 km/h 4.8 km/h 74 % 0.0 mm
20:52 22.1 °C 17.2 °C 1018.5 hPa SW 3.2 km/h 4.8 km/h 74 % 0.0 mm
20:57 22.1 °C 17.2 °C 1018.5 hPa SSW 3.2 km/h 4.8 km/h 74 % 0.0 mm
21:02 22.0 °C 17.2 °C 1018.5 hPa WSW 6.4 km/h 6.4 km/h 74 % 0.0 mm
21:07 22.0 °C 17.2 °C 1018.5 hPa WSW 3.2 km/h 8.0 km/h 74 % 0.0 mm
21:12 22.0 °C 17.2 °C 1018.5 hPa SSW 3.2 km/h 8.0 km/h 74 % 0.0 mm
21:17 22.0 °C 17.2 °C 1018.5 hPa SSW 3.2 km/h 8.0 km/h 74 % 0.0 mm
21:22 21.9 °C 17.1 °C 1018.5 hPa SW 4.8 km/h 6.4 km/h 74 % 0.0 mm
21:27 21.9 °C 17.1 °C 1018.8 hPa SW 4.8 km/h 6.4 km/h 74 % 0.0 mm
21:32 21.9 °C 17.1 °C 1018.8 hPa SW 1.6 km/h 8.0 km/h 74 % 0.0 mm
21:37 21.9 °C 17.1 °C 1018.8 hPa SW 4.8 km/h 8.0 km/h 74 % 0.0 mm
21:42 21.9 °C 17.1 °C 1018.8 hPa WSW 3.2 km/h 8.0 km/h 74 % 0.0 mm
21:47 21.9 °C 17.1 °C 1018.8 hPa SW 1.6 km/h 6.4 km/h 74 % 0.0 mm
21:52 21.8 °C 17.2 °C 1018.8 hPa SSW 1.6 km/h 6.4 km/h 75 % 0.0 mm
21:57 21.8 °C 17.2 °C 1018.8 hPa WSW 1.6 km/h 6.4 km/h 75 % 0.0 mm
22:02 21.7 °C 17.1 °C 1018.8 hPa Calm   4.8 km/h 75 % 0.0 mm
22:07 21.6 °C 17.0 °C 1018.8 hPa Calm   3.2 km/h 75 % 0.0 mm
22:12 21.5 °C 16.9 °C 1018.8 hPa Calm   3.2 km/h 75 % 0.0 mm
22:17 21.4 °C 17.0 °C 1018.8 hPa Calm   1.6 km/h 76 % 0.0 mm
22:22 21.3 °C 16.9 °C 1018.8 hPa SSW 1.6 km/h 1.6 km/h 76 % 0.0 mm
22:27 21.1 °C 16.7 °C 1018.8 hPa Calm   1.6 km/h 76 % 0.0 mm
22:32 20.9 °C 16.5 °C 1018.8 hPa Calm   3.2 km/h 76 % 0.0 mm
22:37 20.8 °C 16.6 °C 1018.8 hPa Calm   3.2 km/h 77 % 0.0 mm
22:42 20.7 °C 16.7 °C 1018.8 hPa Calm   1.6 km/h 78 % 0.0 mm
22:47 20.5 °C 16.5 °C 1018.8 hPa North 1.6 km/h   78 % 0.0 mm
22:52 20.3 °C 16.5 °C 1018.8 hPa North 1.6 km/h 4.8 km/h 79 % 0.0 mm
22:57 20.4 °C 16.8 °C 1018.8 hPa Calm   4.8 km/h 80 % 0.0 mm
23:02 20.4 °C 16.6 °C 1018.8 hPa Calm   3.2 km/h 79 % 0.0 mm
23:07 20.3 °C 16.5 °C 1018.8 hPa Calm   1.6 km/h 79 % 0.0 mm
23:17 20.1 °C 16.3 °C 1018.8 hPa Calm     79 % 0.0 mm
23:27 19.8 °C 16.2 °C 1018.8 hPa Calm     80 % 0.0 mm
23:32 19.7 °C 16.3 °C 1018.8 hPa Calm     81 % 0.0 mm
23:37 19.6 °C 16.2 °C 1018.8 hPa Calm     81 % 0.0 mm
23:47 19.6 °C 16.6 °C 1018.8 hPa Calm     83 % 0.0 mm
23:52 19.6 °C 16.4 °C 1018.8 hPa Calm     82 % 0.0 mm
23:57 19.6 °C 16.4 °C 1018.8 hPa Calm     82 % 0.0 mm
Meteo18
Compliments of Weather Underground - 4 mb

Script developed by  Jim McMurry - jmcmurry@mwt.net Adapted for the template by  Wim van der Kuil - Leuven-Template.eu

You find our weather info also at:

European Weather Network

Weather Underground

Equipment we use:

Weather-station
Davis Vue

Weather-program
Meteohub

Weather-server
Raspberry PI 2 B+

Provider
1 and 1

Davis Vue

Meteohub

Raspberry PI 2 B+

1 and 1